This demonstration page uses our WeatherBlox Daily Observations layout. Learn more.

38.88101, -77.10428

Hourly Observations for January 4, 2017

Temp ( °F °C ) Dew Point ( °F °C ) Humidity (%) Winds ( mph kmh ) Pressure ( in mb ) Visibility ( mi km ) Precip ( " mm )
12:08 am 00:08 Cloudy with Mist and Fog 46 8 46 8 100 100 S 6 9 29.56 1001 1.25 2.011675 0 0
12:15 am 00:15 Cloudy with Fog 46 7.8 46 7.8 100 100 S 7 11 29.56 1001 0.5 0.80467 0 0
12:18 am 00:18 Mostly Cloudy with Fog 46 8 46 8 100 100 S 6 9 29.56 1001 0.5 0.80467 0 0
12:28 am 00:28 Mostly Cloudy with Fog 45 7 45 7 100 100 S 7 11 29.53 1000 0.25 0.402335 0 0
12:48 am 00:48 Mostly Cloudy with Fog 45 7 45 7 100 100 S 9 15 29.53 1000 1 1.60934 0 0
12:52 am 00:52 Mostly Cloudy with Fog 45 7.2 45 7.2 100 100 S 9 15 29.54 1000 1 1.60934 0 0
1:50 am 01:50 Mostly Cloudy with Fog 46 8 46 8 100 100 SSW 5 7 29.53 1000 0.25 0.402335 0 0
1:52 am 01:52 Mostly Cloudy with Fog 46 7.8 46 7.8 100 100 SSW 5 7 29.54 1000 0.25 0.402335 0 0
2:52 am 02:52 Mostly Cloudy with Fog 47 8.3 47 8.3 100 100 SSW 9 15 29.53 1000 0.25 0.402335 0 0
2:56 am 02:56 Cloudy with Fog 46 8 46 8 100 100 SSW 10 17 29.53 1000 0.5 0.80467 0 0
3:52 am 03:52 Cloudy with Fog 47 8.3 47 8.3 100 100 SW 6 9 29.54 1001 0.5 0.80467 0 0
3:56 am 03:56 Cloudy with Mist and Fog 46 8 46 8 100 100 SW 3 6 29.56 1001 1.25 2.011675 0 0
4:23 am 04:23 Cloudy with Mist and Fog 48 8.9 48 8.9 100 100 SW 6 9 29.56 1001 2.5 4.02335 0 0
4:35 am 04:35 Cloudy with Mist and Fog 48 8.9 48 8.9 100 100 SW 6 9 29.56 1001 3 4.82802 0 0
4:52 am 04:52 Cloudy with Mist and Fog 47 8.3 47 8.3 100 100 WSW 5 7 29.54 1001 3 4.82802 0 0
5:42 am 05:42 Mostly Cloudy 46 8 46 8 100 100 NW 5 7 29.56 1001 10 16.0934 0 0
5:52 am 05:52 Mostly Cloudy 46 7.8 46 7.8 100 100 N 3 6 29.55 1001 10 16.0934 0 0
6:52 am 06:52 Mostly Cloudy 45 7.2 44 6.7 97 97 S 5 7 29.57 1001 10 16.0934 0 0
7:05 am 07:05 Mostly Clear with Mist and Fog 44 6.7 44 6.7 100 100 S 10 17 29.56 1001 6 9.65604 0 0
7:09 am 07:09 Mostly Cloudy with Patchy Fog 44 6.7 43 6.1 96 96 S 13 20 29.59 1002 6 9.65604 0 0
7:12 am 07:12 Mostly Cloudy with Fog 45 7 45 7 100 100 S 8 13 29.59 1002 0.25 0.402335 0 0
7:15 am 07:15 Mostly Cloudy with Fog 45 7.2 45 7.2 100 100 SSW 8 13 29.56 1001 0.25 0.402335 0 0
7:25 am 07:25 Mostly Cloudy with Fog 45 7.2 45 7.2 100 100 SSW 9 15 29.59 1002 0.5 0.80467 0 0
7:28 am 07:28 Mostly Cloudy with Fog 45 7 45 7 100 100 S 9 15 29.59 1002 1 1.60934 0 0
7:36 am 07:36 Mostly Cloudy with Fog 46 8 46 8 100 100 S 7 11 29.59 1002 0.5 0.80467 0 0
7:40 am 07:40 Mostly Cloudy with Mist and Fog 45 7 45 7 100 100 S 9 15 29.59 1002 1 1.60934 0 0
7:45 am 07:45 Mostly Cloudy with Fog 44 6.7 44 6.7 100 100 S 10 17 29.59 1002 0.25 0.402335 0 0
7:52 am 07:52 Mostly Cloudy with Fog 44 6.7 44 6.7 100 100 S 10 17 29.58 1002 1 1.60934 0 0
7:54 am 07:54 Mostly Cloudy with Fog 45 7 45 7 100 100 S 10 17 29.59 1002 1 1.60934 0 0
8:12 am 08:12 Mostly Cloudy with Fog 45 7 45 7 100 100 S 9 15 29.59 1002 0.5 0.80467 0 0
8:18 am 08:18 Mostly Cloudy with Fog 46 8 46 8 100 100 S 10 17 29.59 1002 0.25 0.402335 0 0
8:26 am 08:26 Mostly Cloudy with Fog 46 8 46 8 100 100 S 8 13 29.59 1002 0.25 0.402335 0 0
8:30 am 08:30 Mostly Cloudy with Fog 46 8 46 8 100 100 S 9 15 29.59 1002 1 1.60934 0 0
8:52 am 08:52 Mostly Cloudy with Fog 47 8.3 47 8.3 100 100 SSW 8 13 29.6 1002 0.5 0.80467 0 0
8:59 am 08:59 Cloudy with Mist and Fog 47 8.3 47 8.3 100 100 SSW 8 13 29.59 1002 0.75 1.207005 0 0
9:09 am 09:09 Cloudy with Mist and Fog 47 8.3 47 8.3 100 100 SSW 6 9 29.62 1003 1.5 2.41401 0 0
9:19 am 09:19 Cloudy with Mist and Fog 48 8.9 48 8.9 100 100 S 5 7 29.62 1003 1.5 2.41401 0 0
9:30 am 09:30 Cloudy with Mist and Fog 46 8 46 8 100 100 S 6 9 29.62 1003 4 6.43736 0 0
9:52 am 09:52 Cloudy with Patchy Fog 48 8.9 48 8.9 100 100 SW 5 7 29.62 1003 4 6.43736 0 0
9:59 am 09:59 Cloudy with Patchy Fog 48 8.9 48 8.9 100 100 SW 3 6 29.62 1003 4 6.43736 0 0
10:52 am 10:52 Cloudy 49 9.4 49 9.4 100 100 W 3 6 29.65 1004 7 11.26538 0.001 0.001
11:52 am 11:52 Mostly Cloudy 54 12.2 47 8.3 77 77 VRB 7 11 29.63 1003 10 16.0934 0 0
12:52 pm 12:52 Mostly Cloudy 56 13.3 41 5 57 57 WNW 12 19 29.62 1003 10 16.0934 0 0
1:52 pm 13:52 Mostly Cloudy 57 13.9 38 3.3 49 49 NW 16 26 29.62 1003 10 16.0934 0 0
2:52 pm 14:52 Mostly Cloudy 55 12.8 29 -1.7 37 37 WNW 16 26 29.64 1004 10 16.0934 0 0
3:52 pm 15:52 Mostly Cloudy 53 11.7 23 -5 31 31 WNW 15 24 29.67 1005 10 16.0934 0 0
4:52 pm 16:52 Partly Cloudy 50 10 20 -6.7 30 30 WNW 13 20 29.7 1006 10 16.0934 0 0
5:52 pm 17:52 Mostly Clear 48 8.9 13 -10.6 24 24 W 15 24 29.74 1007 10 16.0934 0 0
6:52 pm 18:52 Mostly Clear 45 7.2 10 -12.2 24 24 WNW 16 26 29.78 1008 10 16.0934 0 0
7:52 pm 19:52 Clear 43 6.1 9 -12.8 25 25 WNW 13 20 29.81 1010 10 16.0934 0 0
8:52 pm 20:52 Clear 40 4.4 11 -11.7 30 30 NW 12 19 29.84 1010 10 16.0934 0 0
9:52 pm 21:52 Clear 40 4.4 9 -12.8 28 28 WNW 14 22 29.87 1011 10 16.0934 0 0
10:52 pm 22:52 Clear 38 3.3 9 -12.8 30 30 WNW 12 19 29.89 1012 10 16.0934 0 0
11:52 pm 23:52 Clear 36 2.2 11 -11.7 35 35 NW 8 13 29.91 1013 10 16.0934 0 0

Powered by AerisWeather